Location: Julian California
(33.0790°N, 116.6010°W)
Time: 02:01:53
(UTC-07:00)

Cosmos 1812 - Pass Details

Date: 19 May 2017
Orbit: 519 x 526 km, 82.5° (Epoch: 28 June)

Event Time Altitude Azimuth Distance (km) Brightness Sun altitude
Rises 20:06:45 0° 164° (SSE) 2,639 5.9 -5.4°
Reaches altitude 10° 20:09:02 10° 154° (SSE) 1,756 4.9 -5.9°
Maximum altitude 20:12:27 31° 91° (E) 936 3.5 -6.5°
Drops below altitude 10° 20:15:54 10° 29° (NNE) 1,768 5.4 -7.1°
Sets 20:18:12 0° 19° (NNE) 2,661 6.5 -7.5°
